Regional Weather Roundup
Issued by NWS

Home | Current Version | Previous Version | Graphics & Text | Print | Product List | Glossary On
Versions: 1 2 3 4 5 6 7 8 9 10 11 12 13 14 15 16 17 18 19 20 21 22 23 24 25 26 27 28 29 30 31 32 33 34 35 36 37 38 39 40 41 42 43 44 45 46 47 48 49 50
000
ASUS43 KMKX 242110
RWRWI

WISCONSIN REGIONAL WEATHER ROUNDUP
NATIONAL WEATHER SERVICE MILWAUKEE/SULLIVAN WI
400 PM CDT SUN MAY 24 2015

NOTE: "FAIR" INDICATES FEW OR NO CLOUDS BELOW 12,000 FEET WITH NO
SIGNIFICANT WEATHER AND/OR OBSTRUCTIONS TO VISIBILITY.

WIZ001-002-006>008-014>016-023>028-242200-
NORTHWEST WISCONSIN

CITY           SKY/WX    TMP DP  RH WIND       PRES   REMARKS
SUPERIOR ARPT  CLOUDY    66  44  45 NE7       29.98F
ASHLAND        CLOUDY    72  49  44 N9        29.99F
HAYWARD        LGT RAIN  64  55  72 S7        30.01F
SIREN          DRIZZLE   65  54  65 SE9G17    30.00F
CUMBERLAND     RAIN      59  55  88 E6        30.00F
RICE LAKE      LGT RAIN  60  56  87 E9        30.01F
CHETEK         LGT RAIN  60  58  94 E7        30.00F
LADYSMITH      LGT RAIN  62  58  86 SE8       30.04F
EAU CLAIRE     NOT AVBL
MENOMONIE      DRIZZLE   60  58  92 E14       29.98F
NEW RICHMOND   LGT RAIN  60  58  96 E12       29.97F
OSCEOLA        RAIN      61  61 100 E8        29.99F
$$

WIZ003>005-009-010-017-018-242200-
NORTH CENTRAL WISCONSIN

CITY           SKY/WX    TMP DP  RH WIND       PRES   REMARKS
MANITOWISH WTR CLOUDY    71  49  45 S12       30.02F
ARBOR VITAE    CLOUDY    69  52  54 S14       30.04S
WOODRUFF       CLOUDY    69  52  54 S14       30.04S
RHINELANDER    LGT RAIN  62  55  77 S8        30.07F
EAGLE RIVER    CLOUDY    72  44  36 S9G17     30.04S
LAND O LAKES   CLOUDY    74  43  32 S6        30.04F
PHILLIPS       DRIZZLE   63  55  75 S12       30.04F
TOMAHAWK       LGT RAIN  59  56  88 CALM      30.07F
MEDFORD        RAIN      57  55  94 SE5       30.04F
MERRILL        LGT RAIN  59  57  92 SE6       30.07F
$$

WIZ029-030-035-036-043>047-242200-
CENTRAL WISCONSIN

CITY           SKY/WX    TMP DP  RH WIND       PRES   REMARKS
WAUSAU         LGT RAIN  59  56  89 SE9       30.04F
MOSINEE        DRIZZLE   57  57 100 E8        30.06F
MARSHFIELD     LGT RAIN  60  56  86 SE14G21   30.01F
STEVENS POINT  LGT RAIN  57  55  93 SE10      30.06F
WAUPACA        LGT RAIN  62  57  83 SE6       30.08F
WAUTOMA        RAIN      61  61 100 E6        30.05F FOG
WISC RAPIDS    RAIN      58  55  90 SE9       30.04F FOG
CAMP DOUGLAS   LGT RAIN  57  57 100 SE10      30.00F FOG
$$

WIZ011>013-019>022-031-037>040-048>050-242200-
NORTHEAST WISCONSIN

CITY           SKY/WX    TMP DP  RH WIND       PRES   REMARKS
ANTIGO         DRIZZLE   59  55  88 SE10      30.09F
SHAWANO        LGT RAIN  62  58  84 SE3       30.09F
OCONTO         CLOUDY    63  55  77 S8        30.09F
STURGEON BAY   CLOUDY    63  52  67 S10       30.11F
GREEN BAY      LGT RAIN  63  58  83 SE9       30.08F
MANITOWOC      NOT AVBL
APPLETON       LGT RAIN  61  57  88 SE8       30.07F
CLINTONVILLE   LGT RAIN  61  55  82 SE6       30.07F
OSHKOSH        LGT RAIN  60  56  86 E8        30.05F FOG
$$

WIZ032>034-041-042-053>061-242200-
SOUTHWEST WISCONSIN

CITY           SKY/WX    TMP DP  RH WIND       PRES   REMARKS
LA CROSSE      LGT RAIN  61  57  87 SE9       29.94F
SPARTA         RAIN      58  57  95 E9        29.99F
VIROQUA        CLOUDY    57  57 100 SE17      29.98S
BOSCOBEL       LGT RAIN  61  58  90 VRB3      29.97F FOG
PRAIRIE DU CHI CLOUDY    60  57  91 E12       29.95F
PLATTEVILLE    CLOUDY    60  58  96 E12       29.96F
$$

WIZ056-057-062-063-064-067-068-242200-
SOUTH CENTRAL WISCONSIN

CITY           SKY/WX    TMP DP  RH WIND       PRES   REMARKS
REEDSBURG      RAIN      58  57  97 E6        30.00F
BARABOO/DELLS  RAIN      57  55  92 E13G20    30.01F
LONE ROCK      LGT RAIN  59  56  89 E13       29.99F FOG
MINERAL POINT  RAIN      59  57  94 E13G22    29.96F
MADISON        RAIN      59  56  89 E13       30.00F FOG
MIDDLETON      CLOUDY    60  57  91 E9        30.02F
WATERTOWN      LGT RAIN  60  60 100 E7        30.05R
MONROE         RAIN      59  59 100 E8G16     29.99F
JANESVILLE     CLOUDY    64  57  77 E14       30.00F
$$

WIZ051-052-058>065-066-070>072-242200-
SOUTHEAST WISCONSIN

CITY           SKY/WX    TMP DP  RH WIND       PRES   REMARKS
MILWAUKEE      CLOUDY    53  47  79 E10       30.05F
WAUKESHA       LGT RAIN  57  52  82 E12       30.06F FOG
MILWAUKEE/TIMM NOT AVBL
RACINE         LGT RAIN  56  48  74 E12       30.06F
BURLINGTON     RAIN      58  51  77 E9        30.05S
KENOSHA        LGT RAIN  58  52  80 E13       30.04F
FOND DU LAC    RAIN      60  56  86 SE12      30.05F FOG
SHEBOYGAN      LGT RAIN  59  56  89 E7        30.09F FOG
WEST BEND      RAIN      59  54  82 E10       30.07F
JUNEAU         RAIN      58  55  88 E9        30.05F
$$

LSZ147-162-242200-
LAKE SUPERIOR

STATION/POSITION TIME  TEMP    WIND        PRES    WAVE
                       AIR SEA DIR/SP/G            HT/PER
                 (UTC) (F)     (DEG/KT/KT) (MB)    (FT/S)
W MID LAKE BUOY  1950   52 37  170/  2/  2   N/A     0
DEVILS ISLAND    2000   65      90/  4/  4   N/A
PORT WING        1900   52     360/  3/  5   N/A
SAXON HARBOR     2000   60        CALM       N/A
$$

LMZ867-665-643>646-242200-
LAKE MICHIGAN

STATION/POSITION TIME  TEMP    WIND        PRES    WAVE
                       AIR SEA DIR/SP/G            HT/PER
                 (UTC) (F)     (DEG/KT/KT) (MB)    (FT/S)
CHAMBERS ISLAND  2000   65     200/  6/ 15   N/A
N MID LAKE BUOY  1950   41 36  180/  8/ 10   N/A     1
NORTHPORT PIER   1900   57     140/  9/ 19   N/A
SISTER BAY       2017   67     200/ 11/ 14   N/A
KEWAUNEE LAKESHO 2000   57     190/  6/  8   N/A
SHEBOYGAN LAKESH 2000   48      60/  2/  2   N/A
PORT WASHINGTON  2040   51      40/  9/ 11   N/A
ATWATER BUOY     2000   50 46  360/  4/  6   N/A
MILWAUKEE LAKESH 2000   53      40/ 11/ 12   N/A
S MID LAKE BUOY  1950   48 38   70/ 12/ 12   N/A     0
KENOSHA   LAKESH 1900   52      10/  4/  4   N/A
$$

TC  - TEMPERATURE IN CELSIUS
VSB - VISIBILITY IN STATUTE MILES
WCI - WIND CHILL INDEX
HX  - HEAT INDEX



USA.gov is the U.S. government's official web portal to all federal, state and local government web resources and services.